Regional Weather Roundup
Issued by NWS Charleston, SC

Current Version | Previous Version | Graphics & Text | Print | Product List | Glossary On
Versions: 1 2 3 4 5 6 7 8 9 10 11 12 13 14 15 16 17 18 19 20 21 22 23 24 25 26 27 28 29 30 31 32 33 34 35 36 37 38 39 40 41 42 43 44 45 46 47 48 49 50
196
ASUS42 KCHS 272112
RWRCHS

REGIONAL WEATHER ROUNDUP
NATIONAL WEATHER SERVICE CHARLESTON SC
500 PM EDT MON MAR 27 2017

NOTE: "FAIR" INDICATES FEW OR NO CLOUDS BELOW 12,000 FEET WITH NO
SIGNIFICANT WEATHER AND/OR OBSTRUCTIONS TO VISIBILITY.

NOT ALL STATIONS ARE QUALITY CONTROLLED. USE DATA WITH CAUTION...
ESPECIALLY DEWPOINT OBSERVATIONS.

SCZ027-030-031-034>040-042>050-272200-
...SOUTHEAST SOUTH CAROLINA...

CITY           SKY/WX    TMP DP  RH WIND       PRES   REMARKS
N CHARLESTON   MOSUNNY   77  57  50 S17       30.03F
WATERFRONT PRK   N/A     70  60  70 S15       30.02F
JOHNS ISLAND   FAIR      73  59  60 S13       30.05F
PINOPOLIS        N/A    N/A N/A N/A VRB3      29.95F
MONCKS CORNER  FAIR      77  55  47 S12       30.01F
SUMMERVILLE    MOCLDY    77  59  53 SE6       30.02F
BEAUFORT MCAS  CLOUDY    73  63  70 SE13      30.04F
BEAUFORT ARPT  FAIR      73  59  60 S8G17     30.04F
HILTON HEAD IS PTSUNNY   72  61  68 S10G18    30.05F
WALTERBORO     CLOUDY    77  61  57 S12       30.02F
ALLENDALE      CLOUDY    81  59  47 S3        29.99F

...SOUTHERN MIDLANDS AND PEE DEE...

CITY           SKY/WX    TMP DP  RH WIND       PRES   REMARKS
GEORGETOWN     CLOUDY    73  57  56 S9G17     30.05F
KINGSTREE        N/A     81  54  39 S5        29.99F
ORANGEBURG     MOSUNNY   79  58  48 SW9       30.00F
BARNWELL       MOCLDY    81  61  50 S7        30.00F
AIKEN          FAIR      73  59  60 N3        30.04F
MANNING        FAIR      79  59  50 SW8       30.01F
COLUMBIA       CLOUDY    76  59  55 W16       29.99F
SUMTER         MOSUNNY   80  58  47 S8        29.97F
FLORENCE       LGT RAIN  80  58  46 SW9       29.99F
MYRTLE BEACH   MOSUNNY   72  55  56 S17       30.05F
N MYRTLE BEACH SUNNY     70  57  63 S12       30.04F

$$

GAZ063-065-086>088-099>101-113>116-118-119-134>141-150-272200-
...SOUTHEAST GEORGIA...

CITY           SKY/WX    TMP DP  RH WIND       PRES   REMARKS
SAVANNAH ARPT  CLOUDY    76  59  55 SE16      30.03F
HUNTER AAF     CLOUDY    73  63  69 S5        30.01F
FORT STEWART   CLOUDY    78  61  57 SE13      29.99F
STATESBORO     CLOUDY    82  59  46 SW5       30.00F
SYLVANIA       CLOUDY   N/A N/A N/A CALM      30.01F
CLAXTON        FAIR      81  60  48 SE6       30.00F

...CSRA...CENTRAL AND FAR SOUTHEAST GEORGIA...

CITY           SKY/WX    TMP DP  RH WIND       PRES   REMARKS
THOMSON        PTSUNNY   80  55  41 NW7       30.03F
AUGUSTA-BUSH   MOSUNNY   84  56  38 SW9       29.97F
AUGUSTA-DANIEL PTSUNNY   83  53  35 S8        29.99F
SWAINSBORO     FAIR      82  54  36 SW5       30.00F
VIDALIA        CLOUDY    82  55  39 SW6       30.00F
EASTMAN        MOCLDY    83  37  18 S6        30.02F
HAZLEHURST     FAIR      83  56  39 SW5       29.99F
ALMA           PTSUNNY   83  59  44 SE7       30.00F
WAYCROSS       MOSUNNY   84  61  44 CALM      30.00F
JESUP          CLOUDY    81  57  44 SE12      30.02F
BAXLEY         FAIR      82  61  47 W5        30.00F
BRUNSWICK      MOSUNNY   75  63  64 S10       30.04F
SAINT SIMONS   PTSUNNY   72  61  68 SE13      30.04F

$$

SCZ027-028-034-036>038-045-046-048>050-GAZ119-141-272200-
...LAKE AND SUPPLEMENTAL COASTAL OBSERVATIONS...

STATION/POSITION TIME  TEMP    WIND        PRES    WAVE   SWELL
                       AIR SEA DIR/SP/G            HT/PER HT/PER/DIR
                 (UTC) (F)     (DEG/KT/KT) (MB)    (FT/S) (FT/S/D)
WINYAH BAY       1945   72     160/ 12     1018.0
LAKE MURRAY      2020   75     220/  1/  2 1015.9
ACE BASIN NERRS  NOT AVBL
FORT PULASKI     2048   73 64  170/ 10/ 14 1017.7F
SAPELO ISLAND    2000   77     150/ 13     1018.0

$$

ANZ835-935-AMZ111-154-330-350-352-354-370-450-454-472-272200-
...C-MAN AND BUOY OBSERVATIONS...

STATION/POSITION TIME  TEMP    WIND        PRES    WAVE   SWELL
                       AIR SEA DIR/SP/G            HT/PER HT/PER/DIR
                 (UTC) (F)     (DEG/KT/KT) (MB)    (FT/S) (FT/S/D)
BUOY 41004       1950   72 74  210/  6/  8 1018.5    4/ 8   3/140/ 8
BUOY 41008       1950   67 66  130/  8/ 10 1018.3    4/10   3/110/10
FOLLY BEACH CMAN 2000   67     160/ 11/ 12 1018.8F
CAPERS NEARSHORE 2008   66     180/  8/ 10 1017.9F
FRIPP NEARSHORE  2008   66 64  160/  8/ 12 1017.8F


STATION/POSITION TIME  TEMP    WIND        PRES    WAVE   SWELL
                       AIR SEA DIR/SP/G            HT/PER HT/PER/DIR
                 (UTC) (F)     (DEG/KT/KT) (MB)    (FT/S) (FT/S/D)
5E ST. MARYS GA  2030      67                N/A     3/11   2/110/11
FRYING PAN BUOY  2050   72 77  210/  2/  4 1017.9F   4/10   3/150/10
BUOY 41025       2050   71 76  220/  8/ 12 1018.5F   4/10   3/120/10
CAPE LOOKOUT NC  2000   70     180/  7/  8 1018.5F
BUOY 41002       2050   69 73   80/  6/  8 1019.1F   6/ 9   7/100/ 9
BUOY 41010       NOT AVBL
ST AUGUSTINE FL  2100   70 72  110/ 11/ 12 1018.5F


$$




USA.gov is the U.S. government's official web portal to all federal, state and local government web resources and services.